Location: Riverton
(43.0250°N, 108.3790°W)
Time: 02:22:02
(UTC-07:00)

Daily predictions for brighter satellites

Satellite Brightness Start Highest point End
(mag) Time Altitude Azimuth Time Altitude Azimuth Time Altitude Azimuth
Okean O Rocket 4.1 03:35:58 10° NE 03:38:29 19° E 03:38:29 19° E
Cosmos 1980 Rocket 3.2 03:54:42 41° ESE 03:54:48 41° ESE 04:00:05 10° NE
Cosmos 1821 Rocket 4.4 03:58:36 57° ESE 03:59:15 60° E 04:05:23 10° NNE
ATLAS 5 CENTAUR R/B 4.0 03:59:39 16° SE 04:00:38 17° ESE 04:03:41 10° ENE
SJ 16-02 2.5 04:16:19 41° ENE 04:16:19 41° ENE 04:19:50 10° NNE
Cosmos 1697 Rocket 3.0 04:24:50 56° N 04:24:50 56° N 04:29:25 10° NNE
Cosmos 1000 Rocket 4.5 04:20:35 10° NNW 04:34:38 - S 04:26:00 65° NW
Meteor 1-31 Rocket 4.1 04:23:52 10° NNE 04:26:53 38° ENE 04:26:53 38° ENE
Cosmos 1125 Rocket 4.1 04:26:34 40° SSE 04:28:03 54° ESE 04:33:08 10° NNE
SL-16 R/B 4.1 04:27:47 10° SSE 04:32:31 28° ESE 04:37:16 10° NE
Cosmos 2239 Rocket 4.3 04:32:41 66° SW 04:33:31 77° W 04:39:42 10° N
USA 215 3.9 04:27:54 10° SSE 04:32:24 36° SSW 04:32:24 36° SSW
BREEZE-M DEB (TANK) 4.3 04:42:18 15° SE 04:42:18 15° SE 04:42:46 10° SE
CZ-3 R/B 3.8 04:35:26 32° WSW 04:43:27 42° SSW 04:51:22 10° SE
Cosmos 1605 Rocket 4.2 04:38:52 10° S 04:44:54 68° E 04:50:57 10° NNE
Cosmos 1707 Rocket 3.6 04:54:20 64° NW 04:54:20 64° NW 04:58:26 10° N
ADEOS II 3.8 04:50:02 10° NNW 04:51:53 18° NNW 04:51:53 18° NNW
COSMOS 2455 2.7 04:50:58 15° NNW 04:56:10 86° WSW 05:02:11 10° SSE
CZ-4B R/B 3.1 04:53:18 10° NNE 04:58:47 83° WNW 05:03:38 14° SSW
CZ-4B R/B 3.9 04:55:01 10° N 04:59:27 82° WNW 05:00:36 48° SSW
Cosmos 468 4.5 04:58:36 42° NW 05:00:04 57° WSW 05:05:10 10° S
IRS-1C Rocket 4.0 05:03:34 10° NNE 05:08:53 85° WNW 05:14:09 10° SSW
Cosmos 2263 Rocket 3.0 05:03:50 10° NNW 05:09:24 53° ENE 05:14:56 10° SE
Meteor 2-10 Rocket 3.9 05:11:22 38° WNW 05:11:22 38° WNW 05:15:56 10° N
USA 116 4.2 05:08:40 10° SSE 05:13:20 85° WSW 05:18:32 10° NNW
Cosmos 405 Rocket 2.9 05:09:40 10° S 05:13:36 74° E 05:17:29 10° NNE
Cosmos 1269 Rocket 3.9 05:09:40 10° NNW 05:14:57 74° WSW 05:20:12 10° SSE
Okean O Rocket 2.0 05:11:34 10° N 05:15:45 41° WNW 05:15:57 40° WNW
Cosmos 1934 Rocket 4.2 05:13:13 17° SW 05:17:54 48° WNW 05:24:02 10° N
CZ-4B DEB 4.4 05:13:47 10° N 05:19:03 49° WNW 05:22:32 21° SW
SKYMED 2 3.7 05:17:25 10° SSE 05:21:45 75° ENE 05:26:06 10° N
Cosmos 405 3.0 05:22:03 10° NNW 05:25:33 55° W 05:29:02 10° S
Cosmos 2322 Rocket 2.3 05:23:22 10° SSW 05:29:01 79° ESE 05:34:46 10° NNE
PAYLOAD A 4.0 05:24:30 10° NNE 05:29:20 78° ESE 05:34:18 10° S
Cosmos 2123 Rocket 4.4 05:27:03 10° NNW 05:32:46 39° W 05:38:30 10° SSW
NOAA 6 4.0 05:27:41 10° NNE 05:32:53 87° ESE 05:38:01 10° SSW
Radarsat Rocket 4.5 05:27:34 10° NNE 05:33:24 64° ESE 05:39:36 10° S
Cosmos 2360 Rocket 3.7 05:31:31 10° S 05:36:43 39° ESE 05:41:55 10° NE
EO 1 Del DPAF 4.1 05:33:09 10° SSE 05:36:52 51° ENE 05:40:36 10° N
Cosmos 374 Rocket 4.2 05:33:50 13° NW 05:37:35 73° WSW 05:41:24 10° SSE
Landsat 4 4.0 05:34:10 10° SSE 05:37:51 69° ENE 05:41:34 10° N
Cosmos 1980 Rocket 3.0 05:36:30 23° W 05:38:54 31° NW 05:43:56 10° N
Cosmos 2242 Rocket 3.7 05:36:25 10° SSW 05:40:53 54° W 05:45:24 10° N
ATLAS 5 CENTAUR R/B 1.8 05:41:15 17° SW 05:44:39 58° NW 05:49:38 10° NNE
Meteor 1-25 Rocket 4.2 05:39:27 10° NNW 05:45:13 84° W 05:51:01 10° S
Aureole 2 Rocket 3.7 05:48:11 10° S 05:50:39 33° ESE 05:53:10 10° NE
Cosmos 1441 Rocket 3.8 05:49:19 10° SW 05:53:02 37° WNW 05:56:46 10° N
Cosmos 1908 Rocket 3.5 05:48:44 10° N 05:53:08 88° E 05:57:30 10° S
SJ 16-02 2.8 05:53:22 17° WNW 05:54:26 19° WNW 05:57:35 10° NNW
Cosmos 1733 Rocket 3.6 05:52:01 10° NNW 05:56:01 35° W 06:00:01 10° SSW
IDEFIX/ARIANE 42P 2.6 05:52:41 10° N 05:57:48 57° WNW 06:02:53 10° SSW
Cosmos 1900 4.5 05:53:46 10° SW 05:58:48 59° NW 06:03:50 10° NNE
GENESIS II 4.3 05:54:55 10° SSW 05:58:50 80° ESE 06:02:46 10° NE
Cosmos 1862 Rocket 4.0 05:56:25 10° SW 06:00:29 38° WNW 06:04:38 10° N
Meteor 1-31 Rocket 4.4 05:59:25 10° NNW 06:01:39 15° WNW 06:02:18 15° WNW
Cosmos 2251 Rocket 3.6 05:57:08 10° NNW 06:02:28 87° ENE 06:07:47 10° SSE
MTI 4.0 06:00:43 10° S 06:03:46 43° W 06:06:50 10° NNW
Meteor 1-4 Rocket 3.9 06:01:54 10° N 06:05:33 46° ENE 06:09:12 10° SSE
Cosmos 1697 Rocket 4.5 06:06:35 10° WNW 06:08:52 13° NW 06:11:24 10° NNW
Okean 1-7 3.4 06:05:18 10° S 06:09:35 69° E 06:13:56 10° NNE
COSMO-SKYMED 1 3.3 06:06:04 10° SSW 06:09:57 32° W 06:13:53 10° NNW
COSMOS 2441 4.3 06:05:09 10° N 06:10:03 74° WNW 06:14:57 10° SSW
Cosmos 1602 4.3 06:07:02 10° N 06:10:51 62° E 06:14:37 10° SSE
USA 229 DEB 3.9 06:07:19 10° NW 06:14:33 83° WSW 06:21:56 10° SSE
USA 229 3.9 06:07:26 10° NW 06:14:39 84° WSW 06:22:03 10° SSE
Cosmos 2221 Rocket 4.1 06:11:07 10° S 06:15:32 66° E 06:19:56 10° NNE
Cosmos 2322 4.4 06:10:07 10° S 06:15:40 61° ESE 06:21:15 10° NNE
Cosmos 1782 2.9 06:11:59 10° SSW 06:15:56 56° W 06:19:56 10° N
Okean-O 3.0 06:12:02 10° N 06:16:12 41° WNW 06:20:22 10° SW
SL-16 R/B 2.6 06:10:59 10° SW 06:16:22 44° WNW 06:21:49 10° NNE
CZ-2C R/B 2.7 06:14:50 10° N 06:19:45 50° WNW 06:24:45 10° SW
MSX 3.9 06:16:57 10° N 06:22:37 59° WNW 06:28:16 10° SSW
Tsikada Rocket 4.3 06:18:21 10° N 06:24:40 74° E 06:30:52 10° SSE
CZ-4 R/B 3.2 06:22:57 10° NNE 06:26:32 36° E 06:30:06 10° SSE
Cosmos 1606 3.4 06:24:46 10° SW 06:28:13 32° WNW 06:31:40 10° N
Aureole 3 4.3 06:26:56 10° NW 06:28:52 16° W 06:30:53 10° SW
Meteor 2-12 Rocket 4.5 06:24:43 10° SSW 06:30:51 74° W 06:37:02 10° N
